Location: Agua Amarilla
(10.0342°N, 66.8490°W)
Time: 05:27:02
(UTC+00:00)

Cosmos 1766 - Pass Details

Date: 26 June 2022
Orbit: 515 x 539 km, 82.5° (Epoch: 18 August)

Event Time Altitude Azimuth Distance (km) Brightness Sun altitude
Rises 23:20:01 0° 5° (N) 2,666 7.1 -7.2°
Reaches altitude 10° 23:22:14 10° 12° (NNE) 1,773 6.1 -7.7°
Maximum altitude 23:25:58 45° 85° (E) 722 3.6 -8.5°
Drops below altitude 10° 23:29:41 10° 159° (SSE) 1,759 5.5 -9.3°
Enters shadow 23:31:08 - 164° (SSE) 2,345 6.1 -9.7°
